Home   Weather   Logroño   Past weeks
Flag for Spain

Past Weather in Logroño, Spain — Yesterday and Last 2 Weeks

Now
41 °F

Quite cool.


Feels Like: 38 °F
Forecast: 52 / 42 °F
Wind: 5 mph from South

Location: Logrono / Agoncillo

Current Time: Dec 11, 2019 at 4:52:38 am

Latest Report: Dec 11, 2019 at 4:00 am


Visibility: N/A

Pressure: 30.12 "Hg

Humidity: 81%

Dew Point: 36 °F

Location of LogroñoLocation

Past Weather in Logroño — Graph

°F

Logroño Temperature Yesterday

Maximum temperature yesterday: 54 °F (at 2:30 pm)
Minimum temperature yesterday: 36 °F (at 8:30 am)
Average temperature yesterday: 46 °F

High & Low Weather Summary for the Past Weeks

 TemperatureHumidityPressure
High63 °F (Nov 29, 2:30 pm)100% (Nov 26, 3:30 am)30.48 "Hg (Nov 26, 3:30 am)
Low30 °F (Dec 4, 2:30 am)58% (Dec 10, 7:00 pm)29.59 "Hg (Nov 26, 7:30 pm)
Average46 °F87%30.08 "Hg
* Reported Nov 26 3:00 am — Dec 11 3:30 am, Logroño. Weather by CustomWeather, © 2019

Note: Actual official high and low records may vary slightly from our data, if they occured in-between our weather recording intervals... More about our weather records

Logroño Weather History for the Previous 24 Hours

Scroll right to see more
 ConditionsComfort  
Time TempWeatherWind HumidityBarometerVisibility
3:30 am
Wed, Dec 11
45 °FQuite cool.1 mph71%30.12 "HgN/A
3:00 am46 °FPassing clouds.3 mph71%30.15 "HgN/A
2:30 am46 °FClear.2 mph71%30.15 "Hg10 mi
2:00 am45 °FClear.No wind71%30.15 "Hg10 mi
1:30 am46 °FCool.3 mph71%30.18 "HgN/A
1:00 am46 °FCool.7 mph71%30.18 "HgN/A
12:30 am46 °FClear.7 mph76%30.18 "Hg10 mi
12:00 am46 °FClear.10 mph76%30.18 "Hg10 mi
11:30 pm
Tue, Dec 10
48 °FClear.7 mph71%30.18 "Hg10 mi
11:00 pm48 °FClear.13 mph71%30.18 "Hg10 mi
10:30 pm48 °FClear.15 mph66%30.21 "Hg10 mi
10:00 pm48 °FClear.13 mph71%30.21 "Hg10 mi
9:30 pm48 °FClear.8 mph71%30.21 "Hg10 mi
9:00 pm48 °FClear.1 mph71%30.21 "Hg10 mi
8:30 pm48 °FPassing clouds.3 mph71%30.24 "HgN/A
8:00 pm50 °FClear.8 mph67%30.24 "Hg10 mi
7:30 pm50 °FPassing clouds.8 mph67%30.24 "HgN/A
7:00 pm52 °FClear.12 mph58%30.24 "Hg10 mi
6:30 pm50 °FClear.10 mph67%30.24 "Hg10 mi
6:00 pm48 °FClear.9 mph76%30.24 "Hg10 mi
5:30 pm50 °FSunny.9 mph71%30.24 "Hg10 mi
5:00 pm52 °FSunny.12 mph67%30.24 "Hg10 mi
4:30 pm54 °FSunny.15 mph63%30.27 "Hg10 mi
4:00 pm54 °FSunny.13 mph63%30.27 "Hg10 mi
3:30 pm54 °FPassing clouds.21 mph63%30.27 "HgN/A
3:00 pm54 °FSunny.20 mph67%30.27 "Hg10 mi
2:30 pm54 °FSunny.17 mph67%30.27 "Hg10 mi
2:00 pm52 °FPassing clouds.20 mph67%30.30 "HgN/A
1:30 pm52 °FSunny.20 mph67%30.33 "Hg10 mi
1:00 pm52 °FSunny.17 mph67%30.33 "Hg10 mi
12:30 pm50 °FSunny.20 mph67%30.36 "Hg10 mi
12:00 pm48 °FSunny.23 mph71%30.36 "Hg10 mi
11:30 am48 °FPassing clouds.17 mph71%30.39 "HgN/A
10:30 am43 °FSunny.9 mph81%30.39 "Hg10 mi
10:00 am41 °FPassing clouds.5 mph87%30.42 "HgN/A
9:30 am37 °FSunny.5 mph93%30.42 "Hg10 mi
9:00 am37 °FSunny.5 mph87%30.42 "Hg10 mi
8:30 am36 °FPassing clouds.6 mph93%30.39 "HgN/A
8:00 am37 °FClear.5 mph93%30.42 "Hg10 mi
7:30 am37 °FClear.7 mph93%30.42 "Hg10 mi
7:00 am37 °FClear.8 mph93%30.42 "Hg10 mi
6:30 am37 °FClear.7 mph93%30.42 "Hg10 mi
6:00 am37 °FPassing clouds.7 mph93%30.42 "HgN/A
5:30 am39 °FPassing clouds.7 mph93%30.42 "HgN/A
5:00 am39 °FPassing clouds.7 mph93%30.45 "HgN/A
4:30 am41 °FPassing clouds.10 mph93%30.45 "HgN/A
Weather by CustomWeather, © 2019

See weather overview

Advertising